• In Romania
  • List of Countries
  • For 7 days
  • Water Temperature
  • Satellite Maps
  • Weather Map
  • Weather Widgets
  • user-avatar
    Login

    Hourly Weather Kuzneckoe

    Today, 20 September, Thursday

    Time Temperature Precipitation Wind Pressure Humidity
    00:00 +13°C° 0 mm 3 mps 741 mmHg 93%
    01:00 +13°C° 0 mm 3 mps 741 mmHg 94%
    02:00 +13°C° 0 mm 3 mps 740 mmHg 96%
    03:00 +13°C° 0 mm 3 mps 741 mmHg 97%
    04:00 +13°C° 0 mm 3 mps 741 mmHg 97%
    05:00 +13°C° 0 mm 3 mps 741 mmHg 97%
    06:00 +14°C° 0 mm 3 mps 741 mmHg 94%
    07:00 +14°C° 0 mm 4 mps 742 mmHg 91%
    08:00 +15°C° 0 mm 4 mps 742 mmHg 88%
    09:00 +15°C° 0 mm 4 mps 742 mmHg 85%
    10:00 +15°C° 0 mm 4 mps 743 mmHg 83%
    11:00 +15°C° 0 mm 4 mps 743 mmHg 81%
    12:00 +17°C° 0 mm 4 mps 743 mmHg 76%
    13:00 +18°C° 0 mm 4 mps 743 mmHg 72%
    14:00 +19°C° 0 mm 4 mps 744 mmHg 68%
    15:00 +18°C° 0 mm 3 mps 744 mmHg 72%
    16:00 +18°C° 0 mm 2 mps 744 mmHg 76%
    17:00 +17°C° 0 mm 2 mps 744 mmHg 80%
    18:00 +16°C° 0 mm 2 mps 744 mmHg 84%
    19:00 +16°C° 0 mm 2 mps 744 mmHg 88%
    20:00 +15°C° 0 mm 2 mps 744 mmHg 91%
    21:00 +15°C° 0 mm 2 mps 745 mmHg 92%
    22:00 +14°C° 0 mm 2 mps 745 mmHg 93%
    23:00 +14°C° 0 mm 2 mps 745 mmHg 94%

    Tomorrow, 21 September, Friday

    Time Temperature Precipitation Wind Pressure Humidity
    00:00 +14°C° 0 mm 2 mps 745 mmHg 95%
    01:00 +14°C° 0 mm 2 mps 745 mmHg 95%
    02:00 +14°C° 0 mm 2 mps 745 mmHg 95%
    03:00 +13°C° 0 mm 2 mps 745 mmHg 95%
    04:00 +13°C° 0 mm 2 mps 746 mmHg 96%
    05:00 +13°C° 0 mm 2 mps 746 mmHg 96%
    06:00 +14°C° 0 mm 2 mps 746 mmHg 91%
    07:00 +16°C° 0 mm 2 mps 746 mmHg 87%
    08:00 +17°C° 0 mm 3 mps 746 mmHg 82%
    09:00 +18°C° 0 mm 3 mps 746 mmHg 77%
    10:00 +20°C° 0 mm 3 mps 747 mmHg 71%
    11:00 +22°C° 0 mm 3 mps 747 mmHg 66%
    12:00 +22°C° 0 mm 3 mps 747 mmHg 64%
    13:00 +23°C° 0 mm 4 mps 746 mmHg 61%
    14:00 +23°C° 0 mm 4 mps 746 mmHg 58%
    15:00 +22°C° 0 mm 3 mps 746 mmHg 65%
    16:00 +21°C° 0 mm 3 mps 746 mmHg 71%
    17:00 +20°C° 0 mm 2 mps 746 mmHg 77%
    18:00 +19°C° 0 mm 2 mps 746 mmHg 81%
    19:00 +19°C° 0 mm 3 mps 746 mmHg 85%
    20:00 +18°C° 0 mm 3 mps 746 mmHg 89%
    21:00 +18°C° 0 mm 3 mps 746 mmHg 90%
    22:00 +18°C° 0 mm 3 mps 746 mmHg 91%
    23:00 +17°C° 0 mm 3 mps 746 mmHg 92%

    Day after tomorrow, 22 September, Saturday

    Time Temperature Precipitation Wind Pressure Humidity
    00:00 +17°C° 0 mm 3 mps 745 mmHg 92%
    01:00 +17°C° 0 mm 3 mps 745 mmHg 93%
    02:00 +16°C° 0 mm 3 mps 745 mmHg 94%
    03:00 +16°C° 0 mm 3 mps 745 mmHg 94%
    04:00 +15°C° 0 mm 4 mps 744 mmHg 95%
    05:00 +15°C° 0 mm 4 mps 744 mmHg 95%
    06:00 +17°C° 0 mm 4 mps 744 mmHg 90%
    07:00 +17°C° 0 mm 5 mps 743 mmHg 84%
    08:00 +19°C° 0 mm 5 mps 743 mmHg 79%
    09:00 +20°C° 0 mm 6 mps 742 mmHg 72%
    10:00 +22°C° 0 mm 6 mps 742 mmHg 65%
    11:00 +23°C° 0 mm 7 mps 741 mmHg 58%
    12:00 +23°C° 0 mm 7 mps 741 mmHg 56%
    13:00 +24°C° 0 mm 7 mps 741 mmHg 54%
    14:00 +24°C° 0 mm 7 mps 740 mmHg 51%
    15:00 +23°C° 0.2 mm 6 mps 740 mmHg 57%
    16:00 +21°C° 0.2 mm 5 mps 740 mmHg 63%
    17:00 +20°C° 0.2 mm 5 mps 740 mmHg 69%
    18:00 +18°C° 0.2 mm 4 mps 740 mmHg 76%
    19:00 +16°C° 0.2 mm 3 mps 740 mmHg 83%
    20:00 +13°C° 0.2 mm 3 mps 740 mmHg 90%
    21:00 +13°C° 0 mm 3 mps 740 mmHg 89%
    22:00 +13°C° 0 mm 2 mps 740 mmHg 88%
    23:00 +12°C° 0 mm 2 mps 740 mmHg 87%

    23 September, Sunday

    Time Temperature Precipitation Wind Pressure Humidity
    00:00 +12°C° 0.1 mm 2 mps 740 mmHg 87%
    01:00 +12°C° 0.1 mm 2 mps 740 mmHg 87%
    02:00 +10°C° 0.1 mm 3 mps 740 mmHg 86%
    03:00 +10°C° 0.4 mm 2 mps 740 mmHg 88%
    04:00 +10°C° 0.4 mm 2 mps 740 mmHg 89%
    05:00 +9°C° 0.4 mm 2 mps 740 mmHg 91%
    06:00 +9°C° 1 mm 2 mps 739 mmHg 92%
    07:00 +9°C° 1 mm 2 mps 739 mmHg 92%
    08:00 +9°C° 1 mm 2 mps 739 mmHg 93%
    09:00 +9°C° 0.7 mm 2 mps 739 mmHg 92%
    10:00 +10°C° 0.7 mm 2 mps 739 mmHg 90%
    11:00 +10°C° 0.7 mm 3 mps 738 mmHg 89%
    12:00 +10°C° 0.2 mm 3 mps 738 mmHg 86%
    13:00 +11°C° 0.2 mm 3 mps 738 mmHg 84%
    14:00 +11°C° 0.2 mm 3 mps 738 mmHg 81%
    15:00 +11°C° 0 mm 3 mps 738 mmHg 82%
    16:00 +10°C° 0 mm 2 mps 738 mmHg 84%
    17:00 +10°C° 0 mm 2 mps 738 mmHg 85%
    18:00 +9°C° 0 mm 2 mps 738 mmHg 87%
    19:00 +9°C° 0 mm 2 mps 738 mmHg 90%
    20:00 +8°C° 0 mm 3 mps 737 mmHg 92%
    21:00 +8°C° 0 mm 3 mps 738 mmHg 92%
    22:00 +7°C° 0 mm 3 mps 738 mmHg 92%
    23:00 +7°C° 0 mm 3 mps 738 mmHg 92%

    24 September, Monday

    Time Temperature Precipitation Wind Pressure Humidity
    00:00 +7°C° 0 mm 3 mps 738 mmHg 92%
    01:00 +5°C° 0 mm 3 mps 737 mmHg 93%
    02:00 +5°C° 0 mm 3 mps 737 mmHg 94%
    03:00 +5°C° 0 mm 3 mps 737 mmHg 95%
    04:00 +5°C° 0 mm 3 mps 738 mmHg 95%
    05:00 +4°C° 0 mm 3 mps 738 mmHg 96%
    06:00 +5°C° 0 mm 3 mps 738 mmHg 93%
    07:00 +7°C° 0 mm 3 mps 738 mmHg 90%
    08:00 +8°C° 0 mm 3 mps 738 mmHg 87%
    09:00 +9°C° 0 mm 3 mps 738 mmHg 81%
    10:00 +10°C° 0 mm 3 mps 737 mmHg 76%
    11:00 +11°C° 0 mm 4 mps 737 mmHg 70%
    12:00 +11°C° 0.1 mm 4 mps 736 mmHg 70%
    13:00 +11°C° 0.1 mm 4 mps 736 mmHg 71%
    14:00 +11°C° 0.1 mm 4 mps 735 mmHg 71%
    15:00 +10°C° 0.8 mm 4 mps 734 mmHg 77%
    16:00 +8°C° 0.8 mm 4 mps 733 mmHg 82%
    17:00 +8°C° 0.8 mm 4 mps 732 mmHg 88%
    18:00 +7°C° 2.1 mm 5 mps 731 mmHg 89%
    19:00 +7°C° 2.1 mm 6 mps 730 mmHg 91%
    20:00 +7°C° 2.1 mm 6 mps 729 mmHg 92%
    21:00 +7°C° 2.4 mm 6 mps 727 mmHg 92%
    22:00 +7°C° 2.4 mm 6 mps 726 mmHg 93%
    23:00 +7°C° 2.4 mm 6 mps 724 mmHg 93%

    25 September, Tuesday

    Time Temperature Precipitation Wind Pressure Humidity
    00:00 +7°C° 1.5 mm 5 mps 723 mmHg 93%
    01:00 +7°C° 1.5 mm 4 mps 723 mmHg 92%
    02:00 +9°C° 1.5 mm 3 mps 722 mmHg 92%
    03:00 +8°C° 0.2 mm 3 mps 721 mmHg 93%
    04:00 +8°C° 0.2 mm 2 mps 721 mmHg 93%
    05:00 +7°C° 0.2 mm 2 mps 720 mmHg 94%
    06:00 +8°C° 0.4 mm 2 mps 721 mmHg 93%
    07:00 +8°C° 0.4 mm 2 mps 721 mmHg 93%
    08:00 +8°C° 0.4 mm 2 mps 721 mmHg 93%
    09:00 +8°C° 0.7 mm 3 mps 722 mmHg 92%
    10:00 +7°C° 0.7 mm 4 mps 722 mmHg 90%
    11:00 +7°C° 0.7 mm 5 mps 723 mmHg 89%
    12:00 +7°C° 0.6 mm 6 mps 724 mmHg 88%
    13:00 +5°C° 0.6 mm 7 mps 726 mmHg 87%
    14:00 +5°C° 0.6 mm 8 mps 727 mmHg 86%
    15:00 +4°C° 0.6 mm 8 mps 728 mmHg 85%
    16:00 +3°C° 0.6 mm 9 mps 729 mmHg 85%
    17:00 +3°C° 0.6 mm 9 mps 731 mmHg 84%
    18:00 +3°C° 0.3 mm 9 mps 732 mmHg 84%
    19:00 +2°C° 0.3 mm 8 mps 733 mmHg 83%
    20:00 +2°C° 0.3 mm 8 mps 734 mmHg 83%
    21:00 +2°C° 0.1 mm 8 mps 735 mmHg 81%
    22:00 +2°C° 0.1 mm 7 mps 736 mmHg 80%
    23:00 +2°C° 0.1 mm 7 mps 737 mmHg 78%
    Show more